Time,TemperatureF,DewpointF,PressureIn,WindDirection,WindDirectionDegrees,WindSpeedMPH,WindSpeedGustMPH,Humidity,HourlyPrecipIn,Conditions,Clouds,dailyrainin,SoftwareType,DateUTC
2013-02-15 00:00:00,19.7,17.0,29.47,SE,138,0.0,0.0,89,0.00,,,0.00,LWC V2.00 B2112,2013-02-15 09:00:00,
2013-02-15 00:05:00,19.7,17.0,29.47,SE,138,0.0,0.0,89,0.00,,,0.00,LWC V2.00 B2112,2013-02-15 09:05:00,
2013-02-15 00:10:00,20.2,17.5,29.47,SE,138,0.0,0.0,89,0.00,,,0.00,LWC V2.00 B2112,2013-02-15 09:10:00,
2013-02-15 00:15:00,20.5,17.8,29.47,SE,138,0.0,0.0,89,0.00,,,0.00,LWC V2.00 B2112,2013-02-15 09:15:00,
2013-02-15 00:20:00,20.3,17.6,29.48,SE,138,0.0,0.0,89,0.00,,,0.00,LWC V2.00 B2112,2013-02-15 09:20:00,
2013-02-15 00:25:00,20.0,17.3,29.48,SE,138,0.0,0.0,89,0.00,,,0.00,LWC V2.00 B2112,2013-02-15 09:25:00,
2013-02-15 00:30:00,19.7,17.0,29.48,SE,138,0.0,0.0,89,0.00,,,0.00,LWC V2.00 B2112,2013-02-15 09:30:00,
2013-02-15 00:35:00,19.7,17.0,29.48,SE,138,0.0,0.0,89,0.00,,,0.00,LWC V2.00 B2112,2013-02-15 09:35:00,
2013-02-15 00:40:00,19.7,17.0,29.48,SE,138,0.0,0.0,89,0.00,,,0.00,LWC V2.00 B2112,2013-02-15 09:40:00,
2013-02-15 00:45:00,19.5,16.8,29.49,SE,138,0.0,0.0,89,0.00,,,0.00,LWC V2.00 B2112,2013-02-15 09:45:00,
2013-02-15 00:50:00,19.4,16.7,29.50,SE,138,0.0,0.0,89,0.00,,,0.00,LWC V2.00 B2112,2013-02-15 09:50:00,
2013-02-15 00:55:00,19.2,16.5,29.50,SE,138,0.0,0.0,89,0.00,,,0.00,LWC V2.00 B2112,2013-02-15 09:55:00,
2013-02-15 01:00:00,19.1,16.4,29.50,SE,138,0.0,0.0,89,0.00,,,0.00,LWC V2.00 B2112,2013-02-15 10:00:00,
2013-02-15 01:05:00,19.1,16.4,29.51,SE,138,0.0,0.0,89,0.00,,,0.00,LWC V2.00 B2112,2013-02-15 10:05:00,
2013-02-15 01:10:00,19.7,17.0,29.51,SE,138,0.0,0.0,89,0.00,,,0.00,LWC V2.00 B2112,2013-02-15 10:10:00,
2013-02-15 01:15:00,20.0,17.3,29.51,NE,42,1.0,1.0,89,0.00,,,0.00,LWC V2.00 B2112,2013-02-15 10:15:00,
2013-02-15 01:20:00,20.8,17.8,29.52,NNE,19,0.0,3.0,88,0.00,,,0.00,LWC V2.00 B2112,2013-02-15 10:20:00,
2013-02-15 01:25:00,21.3,18.6,29.52,NNE,19,0.0,0.0,89,0.00,,,0.00,LWC V2.00 B2112,2013-02-15 10:25:00,
2013-02-15 01:30:00,21.5,18.8,29.52,NNE,18,0.0,0.0,89,0.00,,,0.00,LWC V2.00 B2112,2013-02-15 10:30:00,
2013-02-15 01:35:00,21.4,18.7,29.52,NNE,19,0.0,0.0,89,0.00,,,0.00,LWC V2.00 B2112,2013-02-15 10:35:00,
2013-02-15 01:40:00,21.5,18.8,29.53,NNE,19,0.0,0.0,89,0.00,,,0.00,LWC V2.00 B2112,2013-02-15 10:40:00,
2013-02-15 01:45:00,21.4,18.7,29.53,NNE,18,0.0,0.0,89,0.00,,,0.00,LWC V2.00 B2112,2013-02-15 10:45:00,
2013-02-15 01:50:00,21.3,18.6,29.54,NE,36,2.0,4.0,89,0.00,,,0.00,LWC V2.00 B2112,2013-02-15 10:50:00,
2013-02-15 01:55:00,20.7,18.0,29.54,NNE,33,5.0,8.0,89,0.00,,,0.00,LWC V2.00 B2112,2013-02-15 10:55:00,
2013-02-15 02:00:00,19.5,16.8,29.55,NE,53,1.0,4.0,89,0.00,,,0.00,LWC V2.00 B2112,2013-02-15 11:00:00,
2013-02-15 02:05:00,18.2,15.3,29.55,NE,41,1.0,4.0,88,0.00,,,0.00,LWC V2.00 B2112,2013-02-15 11:05:00,
2013-02-15 02:10:00,17.4,14.5,29.55,NE,40,3.0,4.0,88,0.00,,,0.00,LWC V2.00 B2112,2013-02-15 11:10:00,
2013-02-15 02:15:00,16.3,13.4,29.56,ENE,66,2.0,5.0,88,0.00,,,0.00,LWC V2.00 B2112,2013-02-15 11:15:00,
2013-02-15 02:20:00,15.7,12.5,29.56,North,8,0.0,4.0,87,0.00,,,0.00,LWC V2.00 B2112,2013-02-15 11:20:00,
2013-02-15 02:25:00,15.1,11.9,29.56,NNE,25,1.0,3.0,87,0.00,,,0.00,LWC V2.00 B2112,2013-02-15 11:25:00,
2013-02-15 02:30:00,14.5,11.4,29.57,NNE,32,4.0,10.0,87,0.00,,,0.00,LWC V2.00 B2112,2013-02-15 11:30:00,
2013-02-15 02:35:00,14.1,11.0,29.57,North,0,1.0,2.0,87,0.00,,,0.00,LWC V2.00 B2112,2013-02-15 11:35:00,
2013-02-15 02:40:00,13.9,11.0,29.57,NNE,18,0.0,2.0,88,0.00,,,0.00,LWC V2.00 B2112,2013-02-15 11:40:00,
2013-02-15 02:45:00,13.5,10.4,29.57,NE,37,0.0,2.0,87,0.00,,,0.00,LWC V2.00 B2112,2013-02-15 11:45:00,
2013-02-15 02:50:00,13.2,10.3,29.58,NE,44,1.0,1.0,88,0.00,,,0.00,LWC V2.00 B2112,2013-02-15 11:50:00,
2013-02-15 02:55:00,13.0,9.9,29.58,NNE,30,2.0,3.0,87,0.00,,,0.00,LWC V2.00 B2112,2013-02-15 11:55:00,
2013-02-15 03:00:00,12.8,9.7,29.59,NNW,336,1.0,2.0,87,0.00,,,0.00,LWC V2.00 B2112,2013-02-15 12:00:00,
2013-02-15 03:05:00,12.6,9.5,29.59,NE,42,0.0,2.0,87,0.00,,,0.00,LWC V2.00 B2112,2013-02-15 12:05:00,
2013-02-15 03:10:00,12.5,9.4,29.60,NNE,33,0.0,0.0,87,0.00,,,0.00,LWC V2.00 B2112,2013-02-15 12:10:00,
2013-02-15 03:15:00,12.5,9.4,29.60,North,1,0.0,1.0,87,0.00,,,0.00,LWC V2.00 B2112,2013-02-15 12:15:00,
2013-02-15 03:20:00,12.5,9.4,29.60,NE,47,1.0,1.0,87,0.00,,,0.00,LWC V2.00 B2112,2013-02-15 12:20:00,
2013-02-15 03:25:00,12.5,9.4,29.61,North,6,0.0,1.0,87,0.00,,,0.00,LWC V2.00 B2112,2013-02-15 12:25:00,
2013-02-15 03:30:00,12.4,9.3,29.61,NE,34,0.0,1.0,87,0.00,,,0.00,LWC V2.00 B2112,2013-02-15 12:30:00,
2013-02-15 03:35:00,12.3,9.2,29.61,NNW,347,3.0,3.0,87,0.00,,,0.00,LWC V2.00 B2112,2013-02-15 12:35:00,
2013-02-15 03:40:00,12.3,9.2,29.62,East,80,0.0,1.0,87,0.00,,,0.00,LWC V2.00 B2112,2013-02-15 12:40:00,
2013-02-15 03:45:00,12.2,9.1,29.62,North,2,1.0,1.0,87,0.00,,,0.00,LWC V2.00 B2112,2013-02-15 12:45:00,
2013-02-15 03:50:00,12.2,9.1,29.62,North,3,0.0,0.0,87,0.00,,,0.00,LWC V2.00 B2112,2013-02-15 12:50:00,
2013-02-15 03:55:00,12.1,9.0,29.63,NNE,31,0.0,0.0,87,0.00,,,0.00,LWC V2.00 B2112,2013-02-15 12:55:00,
2013-02-15 04:00:00,12.1,9.0,29.63,NNE,31,0.0,0.0,87,0.00,,,0.00,LWC V2.00 B2112,2013-02-15 13:00:00,
2013-02-15 04:05:00,12.0,8.9,29.63,NNE,31,0.0,0.0,87,0.00,,,0.00,LWC V2.00 B2112,2013-02-15 13:05:00,
2013-02-15 04:10:00,12.1,9.0,29.63,NNE,31,0.0,0.0,87,0.00,,,0.00,LWC V2.00 B2112,2013-02-15 13:10:00,
2013-02-15 04:15:00,12.0,8.9,29.64,NNE,31,0.0,0.0,87,0.00,,,0.00,LWC V2.00 B2112,2013-02-15 13:15:00,
2013-02-15 04:20:00,12.0,8.9,29.64,NNE,31,0.0,0.0,87,0.00,,,0.00,LWC V2.00 B2112,2013-02-15 13:20:00,
2013-02-15 04:25:00,12.1,9.0,29.65,NNE,31,0.0,0.0,87,0.00,,,0.00,LWC V2.00 B2112,2013-02-15 13:25:00,
2013-02-15 04:30:00,12.1,9.0,29.65,NNE,31,0.0,0.0,87,0.00,,,0.00,LWC V2.00 B2112,2013-02-15 13:30:00,
2013-02-15 04:35:00,12.1,9.0,29.65,NNE,31,0.0,0.0,87,0.00,,,0.00,LWC V2.00 B2112,2013-02-15 13:35:00,
2013-02-15 04:40:00,12.1,9.2,29.65,NNE,30,1.0,1.0,88,0.00,,,0.00,LWC V2.00 B2112,2013-02-15 13:40:00,
2013-02-15 04:45:00,12.1,9.0,29.65,NNE,30,0.0,0.0,87,0.00,,,0.00,LWC V2.00 B2112,2013-02-15 13:45:00,
2013-02-15 04:50:00,12.1,9.0,29.66,NNE,30,0.0,0.0,87,0.00,,,0.00,LWC V2.00 B2112,2013-02-15 13:50:00,
2013-02-15 04:55:00,12.1,9.0,29.66,NNE,30,0.0,0.0,87,0.00,,,0.00,LWC V2.00 B2112,2013-02-15 13:55:00,
2013-02-15 05:00:00,12.1,9.2,29.66,NNE,30,0.0,1.0,88,0.00,,,0.00,LWC V2.00 B2112,2013-02-15 14:00:00,
2013-02-15 05:05:00,12.1,9.2,29.66,WSW,254,2.0,2.0,88,0.00,,,0.00,LWC V2.00 B2112,2013-02-15 14:05:00,
2013-02-15 05:10:00,12.1,9.0,29.67,WSW,254,1.0,2.0,87,0.00,,,0.00,LWC V2.00 B2112,2013-02-15 14:10:00,
2013-02-15 05:15:00,12.1,9.0,29.67,WSW,253,0.0,0.0,87,0.00,,,0.00,LWC V2.00 B2112,2013-02-15 14:15:00,
2013-02-15 05:20:00,12.1,9.0,29.68,WSW,253,1.0,2.0,87,0.00,,,0.00,LWC V2.00 B2112,2013-02-15 14:20:00,
2013-02-15 05:25:00,12.1,9.0,29.68,WSW,254,1.0,2.0,87,0.00,,,0.00,LWC V2.00 B2112,2013-02-15 14:25:00,
2013-02-15 05:30:00,12.1,9.0,29.68,WSW,254,0.0,2.0,87,0.00,,,0.00,LWC V2.00 B2112,2013-02-15 14:30:00,
2013-02-15 05:35:00,12.0,8.9,29.68,West,276,1.0,1.0,87,0.00,,,0.00,LWC V2.00 B2112,2013-02-15 14:35:00,
2013-02-15 05:40:00,11.9,8.8,29.69,West,276,1.0,2.0,87,0.00,,,0.00,LWC V2.00 B2112,2013-02-15 14:40:00,
2013-02-15 05:45:00,11.8,8.7,29.69,West,276,1.0,2.0,87,0.00,,,0.00,LWC V2.00 B2112,2013-02-15 14:45:00,
2013-02-15 05:50:00,11.8,8.7,29.70,West,280,2.0,3.0,87,0.00,,,0.00,LWC V2.00 B2112,2013-02-15 14:50:00,
2013-02-15 05:55:00,11.7,8.6,29.70,NW,311,0.0,1.0,87,0.00,,,0.00,LWC V2.00 B2112,2013-02-15 14:55:00,
2013-02-15 06:00:00,11.5,8.4,29.70,WNW,287,1.0,2.0,87,0.00,,,0.00,LWC V2.00 B2112,2013-02-15 15:00:00,
2013-02-15 06:05:00,11.3,8.2,29.70,WNW,289,0.0,1.0,87,0.00,,,0.00,LWC V2.00 B2112,2013-02-15 15:05:00,
2013-02-15 06:10:00,11.2,8.1,29.71,WNW,288,0.0,0.0,87,0.00,,,0.00,LWC V2.00 B2112,2013-02-15 15:10:00,
2013-02-15 06:15:00,11.1,7.7,29.71,WNW,288,0.0,0.0,86,0.00,,,0.00,LWC V2.00 B2112,2013-02-15 15:15:00,
2013-02-15 06:20:00,11.1,7.7,29.71,WNW,296,0.0,2.0,86,0.00,,,0.00,LWC V2.00 B2112,2013-02-15 15:20:00,
2013-02-15 06:25:00,11.0,7.7,29.72,WNW,296,0.0,0.0,86,0.00,,,0.00,LWC V2.00 B2112,2013-02-15 15:25:00,
2013-02-15 06:30:00,11.0,7.7,29.72,WNW,295,0.0,0.0,86,0.00,,,0.00,LWC V2.00 B2112,2013-02-15 15:30:00,
2013-02-15 06:35:00,11.0,7.9,29.72,WNW,296,0.0,1.0,87,0.00,,,0.00,LWC V2.00 B2112,2013-02-15 15:35:00,
2013-02-15 06:40:00,11.0,7.9,29.73,WNW,296,0.0,0.0,87,0.00,,,0.00,LWC V2.00 B2112,2013-02-15 15:40:00,
2013-02-15 06:45:00,10.9,7.8,29.73,WNW,296,0.0,0.0,87,0.00,,,0.00,LWC V2.00 B2112,2013-02-15 15:45:00,
2013-02-15 06:50:00,10.9,7.8,29.73,WNW,295,0.0,0.0,87,0.00,,,0.00,LWC V2.00 B2112,2013-02-15 15:50:00,
2013-02-15 06:55:00,10.9,7.8,29.73,WNW,296,0.0,0.0,87,0.00,,,0.00,LWC V2.00 B2112,2013-02-15 15:55:00,
2013-02-15 07:00:00,10.8,7.7,29.74,WNW,296,0.0,0.0,87,0.00,,,0.00,LWC V2.00 B2112,2013-02-15 16:00:00,
2013-02-15 07:05:00,10.8,7.7,29.74,WNW,295,0.0,0.0,87,0.00,,,0.00,LWC V2.00 B2112,2013-02-15 16:05:00,
2013-02-15 07:10:00,10.8,7.7,29.74,WNW,295,0.0,0.0,87,0.00,,,0.00,LWC V2.00 B2112,2013-02-15 16:10:00,
2013-02-15 07:15:00,10.8,7.7,29.74,WNW,296,0.0,0.0,87,0.00,,,0.00,LWC V2.00 B2112,2013-02-15 16:15:00,
2013-02-15 07:20:00,10.8,7.7,29.74,WNW,296,0.0,0.0,87,0.00,,,0.00,LWC V2.00 B2112,2013-02-15 16:20:00,
2013-02-15 07:25:00,10.8,7.7,29.75,WNW,295,0.0,0.0,87,0.00,,,0.00,LWC V2.00 B2112,2013-02-15 16:25:00,
2013-02-15 07:30:00,10.9,7.8,29.75,WNW,296,0.0,0.0,87,0.00,,,0.00,LWC V2.00 B2112,2013-02-15 16:30:00,
2013-02-15 07:35:00,10.8,7.7,29.75,WNW,296,0.0,0.0,87,0.00,,,0.00,LWC V2.00 B2112,2013-02-15 16:35:00,
2013-02-15 07:40:00,10.8,7.7,29.76,WNW,295,0.0,0.0,87,0.00,,,0.00,LWC V2.00 B2112,2013-02-15 16:40:00,
2013-02-15 07:45:00,10.8,7.7,29.76,WNW,295,0.0,0.0,87,0.00,,,0.00,LWC V2.00 B2112,2013-02-15 16:45:00,
2013-02-15 07:50:00,10.7,7.6,29.76,WNW,296,0.0,0.0,87,0.00,,,0.00,LWC V2.00 B2112,2013-02-15 16:50:00,
2013-02-15 07:55:00,10.7,7.9,29.77,WNW,296,0.0,0.0,88,0.00,,,0.00,LWC V2.00 B2112,2013-02-15 16:55:00,
2013-02-15 08:00:00,10.7,7.9,29.77,WNW,295,0.0,1.0,88,0.00,,,0.00,LWC V2.00 B2112,2013-02-15 17:00:00,
2013-02-15 08:05:00,10.7,7.9,29.77,WNW,296,0.0,0.0,88,0.00,,,0.00,LWC V2.00 B2112,2013-02-15 17:05:00,
2013-02-15 08:10:00,10.6,7.8,29.77,WNW,295,0.0,1.0,88,0.00,,,0.00,LWC V2.00 B2112,2013-02-15 17:10:00,
2013-02-15 08:15:00,10.6,7.8,29.78,WNW,295,0.0,0.0,88,0.00,,,0.00,LWC V2.00 B2112,2013-02-15 17:15:00,
2013-02-15 08:20:00,10.6,7.8,29.78,WNW,296,0.0,0.0,88,0.00,,,0.00,LWC V2.00 B2112,2013-02-15 17:20:00,
2013-02-15 08:25:00,10.5,7.7,29.78,WNW,296,0.0,0.0,88,0.00,,,0.00,LWC V2.00 B2112,2013-02-15 17:25:00,
2013-02-15 08:30:00,10.5,7.7,29.78,WNW,295,0.0,0.0,88,0.00,,,0.00,LWC V2.00 B2112,2013-02-15 17:30:00,
2013-02-15 08:35:00,10.5,7.7,29.79,WNW,296,0.0,0.0,88,0.00,,,0.00,LWC V2.00 B2112,2013-02-15 17:35:00,
2013-02-15 08:40:00,10.5,7.7,29.79,WNW,296,0.0,0.0,88,0.00,,,0.00,LWC V2.00 B2112,2013-02-15 17:40:00,
2013-02-15 08:45:00,10.4,7.6,29.80,WNW,295,0.0,0.0,88,0.00,,,0.00,LWC V2.00 B2112,2013-02-15 17:45:00,
2013-02-15 08:50:00,10.4,7.6,29.80,WNW,296,0.0,0.0,88,0.00,,,0.00,LWC V2.00 B2112,2013-02-15 17:50:00,
2013-02-15 08:55:00,10.5,7.7,29.81,WNW,296,0.0,0.0,88,0.00,,,0.00,LWC V2.00 B2112,2013-02-15 17:55:00,
2013-02-15 09:00:00,10.5,7.7,29.81,WNW,296,0.0,0.0,88,0.00,,,0.00,LWC V2.00 B2112,2013-02-15 18:00:00,
2013-02-15 09:05:00,10.4,7.6,29.81,WNW,295,0.0,0.0,88,0.00,,,0.00,LWC V2.00 B2112,2013-02-15 18:05:00,
2013-02-15 09:10:00,10.4,7.6,29.81,WNW,296,0.0,0.0,88,0.00,,,0.00,LWC V2.00 B2112,2013-02-15 18:10:00,
2013-02-15 09:15:00,10.4,7.6,29.82,WNW,296,0.0,0.0,88,0.00,,,0.00,LWC V2.00 B2112,2013-02-15 18:15:00,
2013-02-15 09:20:00,10.5,7.7,29.82,WNW,295,0.0,0.0,88,0.00,,,0.00,LWC V2.00 B2112,2013-02-15 18:20:00,
2013-02-15 09:25:00,10.5,7.7,29.82,WNW,295,0.0,0.0,88,0.00,,,0.00,LWC V2.00 B2112,2013-02-15 18:25:00,
2013-02-15 09:30:00,10.6,7.8,29.82,WNW,295,0.0,0.0,88,0.00,,,0.00,LWC V2.00 B2112,2013-02-15 18:30:00,
2013-02-15 09:35:00,10.7,8.1,29.83,WNW,296,0.0,0.0,89,0.00,,,0.00,LWC V2.00 B2112,2013-02-15 18:35:00,
2013-02-15 09:40:00,10.7,8.1,29.83,WNW,296,0.0,0.0,89,0.00,,,0.00,LWC V2.00 B2112,2013-02-15 18:40:00,
2013-02-15 09:45:00,10.8,8.2,29.83,WNW,295,0.0,0.0,89,0.00,,,0.00,LWC V2.00 B2112,2013-02-15 18:45:00,
2013-02-15 09:50:00,10.9,8.3,29.83,WNW,296,1.0,1.0,89,0.00,,,0.00,LWC V2.00 B2112,2013-02-15 18:50:00,
2013-02-15 09:55:00,11.0,8.4,29.83,WNW,296,0.0,0.0,89,0.00,,,0.00,LWC V2.00 B2112,2013-02-15 18:55:00,
2013-02-15 10:00:00,11.0,8.2,29.84,WNW,295,0.0,0.0,88,0.00,,,0.00,LWC V2.00 B2112,2013-02-15 19:00:00,
2013-02-15 10:05:00,11.2,8.6,29.84,WNW,296,0.0,0.0,89,0.00,,,0.00,LWC V2.00 B2112,2013-02-15 19:05:00,
2013-02-15 10:10:00,11.4,8.8,29.84,WNW,296,0.0,0.0,89,0.00,,,0.00,LWC V2.00 B2112,2013-02-15 19:10:00,
2013-02-15 10:15:00,11.5,8.9,29.85,WNW,296,0.0,2.0,89,0.00,,,0.00,LWC V2.00 B2112,2013-02-15 19:15:00,
2013-02-15 10:20:00,11.6,9.0,29.85,WNW,295,0.0,0.0,89,0.00,,,0.00,LWC V2.00 B2112,2013-02-15 19:20:00,
2013-02-15 10:25:00,11.7,9.1,29.85,WNW,296,0.0,0.0,89,0.00,,,0.00,LWC V2.00 B2112,2013-02-15 19:25:00,
2013-02-15 10:30:00,11.8,8.9,29.85,WNW,296,0.0,0.0,88,0.00,,,0.00,LWC V2.00 B2112,2013-02-15 19:30:00,
2013-02-15 10:35:00,11.9,9.0,29.85,WNW,295,0.0,0.0,88,0.00,,,0.00,LWC V2.00 B2112,2013-02-15 19:35:00,
2013-02-15 10:40:00,11.9,9.0,29.85,WNW,295,0.0,0.0,88,0.00,,,0.00,LWC V2.00 B2112,2013-02-15 19:40:00,
2013-02-15 10:45:00,11.9,9.0,29.86,WNW,296,0.0,0.0,88,0.00,,,0.00,LWC V2.00 B2112,2013-02-15 19:45:00,
2013-02-15 10:50:00,12.0,9.4,29.86,WNW,296,0.0,0.0,89,0.00,,,0.00,LWC V2.00 B2112,2013-02-15 19:50:00,
2013-02-15 10:55:00,12.2,9.3,29.86,WNW,296,1.0,1.0,88,0.00,,,0.00,LWC V2.00 B2112,2013-02-15 19:55:00,
2013-02-15 11:00:00,12.3,9.4,29.87,WNW,296,0.0,0.0,88,0.00,,,0.00,LWC V2.00 B2112,2013-02-15 20:00:00,
2013-02-15 11:05:00,12.3,9.4,29.87,WNW,296,0.0,0.0,88,0.00,,,0.00,LWC V2.00 B2112,2013-02-15 20:05:00,
2013-02-15 11:10:00,12.3,9.4,29.87,WNW,295,1.0,1.0,88,0.00,,,0.00,LWC V2.00 B2112,2013-02-15 20:10:00,
2013-02-15 11:15:00,12.2,9.3,29.87,WNW,295,0.0,0.0,88,0.00,,,0.00,LWC V2.00 B2112,2013-02-15 20:15:00,
2013-02-15 11:20:00,12.3,9.4,29.88,WNW,295,0.0,2.0,88,0.00,,,0.00,LWC V2.00 B2112,2013-02-15 20:20:00,
2013-02-15 11:25:00,12.1,9.2,29.88,WNW,295,0.0,1.0,88,0.00,,,0.00,LWC V2.00 B2112,2013-02-15 20:25:00,
2013-02-15 11:30:00,12.2,9.3,29.88,WNW,302,1.0,1.0,88,0.00,,,0.00,LWC V2.00 B2112,2013-02-15 20:30:00,
2013-02-15 11:35:00,12.7,9.8,29.89,ENE,60,0.0,1.0,88,0.00,,,0.00,LWC V2.00 B2112,2013-02-15 20:35:00,
2013-02-15 11:40:00,13.5,10.6,29.89,NNE,20,2.0,5.0,88,0.00,,,0.00,LWC V2.00 B2112,2013-02-15 20:40:00,
2013-02-15 11:45:00,13.8,10.7,29.90,NE,38,1.0,5.0,87,0.00,,,0.00,LWC V2.00 B2112,2013-02-15 20:45:00,
2013-02-15 11:50:00,14.0,10.9,29.90,ENE,58,3.0,3.0,87,0.00,,,0.00,LWC V2.00 B2112,2013-02-15 20:50:00,
2013-02-15 11:55:00,13.9,10.5,29.90,ENE,63,1.0,4.0,86,0.00,,,0.00,LWC V2.00 B2112,2013-02-15 20:55:00,
2013-02-15 12:00:00,13.7,10.0,29.90,North,351,2.0,5.0,85,0.00,,,0.00,LWC V2.00 B2112,2013-02-15 21:00:00,
2013-02-15 12:05:00,13.5,9.6,29.90,NE,42,1.0,4.0,84,0.00,,,0.00,LWC V2.00 B2112,2013-02-15 21:05:00,
2013-02-15 12:10:00,13.4,9.2,29.91,NE,53,2.0,4.0,83,0.00,,,0.00,LWC V2.00 B2112,2013-02-15 21:10:00,
2013-02-15 12:15:00,13.3,9.1,29.91,East,80,1.0,5.0,83,0.00,,,0.00,LWC V2.00 B2112,2013-02-15 21:15:00,
2013-02-15 12:20:00,13.2,9.0,29.91,ENE,73,3.0,4.0,83,0.00,,,0.00,LWC V2.00 B2112,2013-02-15 21:20:00,
2013-02-15 12:25:00,13.0,8.8,29.91,ENE,75,4.0,6.0,83,0.00,,,0.00,LWC V2.00 B2112,2013-02-15 21:25:00,
2013-02-15 12:30:00,12.8,8.4,29.91,ENE,70,2.0,4.0,82,0.00,,,0.00,LWC V2.00 B2112,2013-02-15 21:30:00,
2013-02-15 12:35:00,12.8,8.4,29.92,ENE,57,0.0,2.0,82,0.00,,,0.00,LWC V2.00 B2112,2013-02-15 21:35:00,
2013-02-15 12:40:00,12.9,8.5,29.92,ENE,66,0.0,3.0,82,0.00,,,0.00,LWC V2.00 B2112,2013-02-15 21:40:00,
2013-02-15 12:45:00,12.9,8.5,29.92,ENE,65,2.0,3.0,82,0.00,,,0.00,LWC V2.00 B2112,2013-02-15 21:45:00,
2013-02-15 12:50:00,12.9,8.5,29.92,NE,56,1.0,2.0,82,0.00,,,0.00,LWC V2.00 B2112,2013-02-15 21:50:00,
2013-02-15 12:55:00,13.0,8.6,29.93,ENE,72,0.0,1.0,82,0.00,,,0.00,LWC V2.00 B2112,2013-02-15 21:55:00,
2013-02-15 13:00:00,13.1,8.7,29.93,ENE,70,0.0,2.0,82,0.00,,,0.00,LWC V2.00 B2112,2013-02-15 22:00:00,
2013-02-15 13:05:00,13.0,8.6,29.93,NNE,17,1.0,3.0,82,0.00,,,0.00,LWC V2.00 B2112,2013-02-15 22:05:00,
2013-02-15 13:10:00,13.0,8.6,29.93,ENE,59,1.0,3.0,82,0.00,,,0.00,LWC V2.00 B2112,2013-02-15 22:10:00,
2013-02-15 13:15:00,12.9,8.2,29.94,NE,37,1.0,2.0,81,0.00,,,0.00,LWC V2.00 B2112,2013-02-15 22:15:00,
2013-02-15 13:20:00,12.8,8.1,29.94,ENE,62,3.0,3.0,81,0.00,,,0.00,LWC V2.00 B2112,2013-02-15 22:20:00,
2013-02-15 13:25:00,12.7,8.0,29.94,ENE,68,2.0,3.0,81,0.00,,,0.00,LWC V2.00 B2112,2013-02-15 22:25:00,
2013-02-15 13:30:00,12.7,8.3,29.94,ENE,60,0.0,1.0,82,0.00,,,0.00,LWC V2.00 B2112,2013-02-15 22:30:00,
2013-02-15 13:35:00,12.8,8.4,29.94,ENE,60,0.0,1.0,82,0.00,,,0.00,LWC V2.00 B2112,2013-02-15 22:35:00,
2013-02-15 13:40:00,13.0,8.6,29.94,ENE,60,0.0,0.0,82,0.00,,,0.00,LWC V2.00 B2112,2013-02-15 22:40:00,
2013-02-15 13:45:00,12.9,8.5,29.94,NE,50,0.0,1.0,82,0.00,,,0.00,LWC V2.00 B2112,2013-02-15 22:45:00,
2013-02-15 13:50:00,12.7,8.0,29.94,ENE,75,1.0,2.0,81,0.00,,,0.00,LWC V2.00 B2112,2013-02-15 22:50:00,
2013-02-15 13:55:00,12.6,7.9,29.94,ENE,60,2.0,2.0,81,0.00,,,0.00,LWC V2.00 B2112,2013-02-15 22:55:00,
2013-02-15 14:00:00,12.5,7.8,29.94,ENE,68,1.0,3.0,81,0.00,,,0.00,LWC V2.00 B2112,2013-02-15 23:00:00,
2013-02-15 14:05:00,12.3,7.6,29.94,ENE,73,1.0,2.0,81,0.00,,,0.00,LWC V2.00 B2112,2013-02-15 23:05:00,
2013-02-15 14:10:00,12.2,7.5,29.94,NNE,31,0.0,2.0,81,0.00,,,0.00,LWC V2.00 B2112,2013-02-15 23:10:00,
2013-02-15 14:15:00,12.1,7.1,29.95,ENE,69,0.0,1.0,80,0.00,,,0.00,LWC V2.00 B2112,2013-02-15 23:15:00,
2013-02-15 14:20:00,12.1,7.1,29.95,NE,54,0.0,3.0,80,0.00,,,0.00,LWC V2.00 B2112,2013-02-15 23:20:00,
2013-02-15 14:25:00,12.2,7.2,29.95,NE,40,2.0,3.0,80,0.00,,,0.00,LWC V2.00 B2112,2013-02-15 23:25:00,
2013-02-15 14:30:00,12.1,7.1,29.95,ENE,75,1.0,2.0,80,0.00,,,0.00,LWC V2.00 B2112,2013-02-15 23:30:00,
2013-02-15 14:35:00,12.2,7.2,29.95,NNE,21,0.0,2.0,80,0.00,,,0.00,LWC V2.00 B2112,2013-02-15 23:35:00,
2013-02-15 14:40:00,12.3,7.3,29.95,ESE,103,0.0,1.0,80,0.00,,,0.00,LWC V2.00 B2112,2013-02-15 23:40:00,
2013-02-15 14:45:00,12.4,7.4,29.96,NE,51,0.0,2.0,80,0.00,,,0.00,LWC V2.00 B2112,2013-02-15 23:45:00,
2013-02-15 14:50:00,12.5,7.5,29.96,ESE,104,0.0,1.0,80,0.00,,,0.00,LWC V2.00 B2112,2013-02-15 23:50:00,
2013-02-15 14:55:00,12.5,7.5,29.96,East,83,2.0,2.0,80,0.00,,,0.00,LWC V2.00 B2112,2013-02-15 23:55:00,
2013-02-15 15:00:00,12.2,7.0,29.96,East,93,0.0,4.0,79,0.00,,,0.00,LWC V2.00 B2112,2013-02-16 00:00:00,
2013-02-15 15:05:00,12.0,6.8,29.96,ENE,70,0.0,2.0,79,0.00,,,0.00,LWC V2.00 B2112,2013-02-16 00:05:00,
2013-02-15 15:10:00,12.0,6.8,29.96,ENE,65,1.0,2.0,79,0.00,,,0.00,LWC V2.00 B2112,2013-02-16 00:10:00,
2013-02-15 15:15:00,12.0,6.8,29.96,ENE,62,2.0,3.0,79,0.00,,,0.00,LWC V2.00 B2112,2013-02-16 00:15:00,
2013-02-15 15:20:00,12.0,6.8,29.96,NNE,25,2.0,5.0,79,0.00,,,0.00,LWC V2.00 B2112,2013-02-16 00:20:00,
2013-02-15 15:25:00,11.8,6.6,29.96,NNE,32,1.0,2.0,79,0.00,,,0.00,LWC V2.00 B2112,2013-02-16 00:25:00,
2013-02-15 15:30:00,11.6,6.4,29.97,NNE,22,0.0,4.0,79,0.00,,,0.00,LWC V2.00 B2112,2013-02-16 00:30:00,
2013-02-15 15:35:00,11.4,6.2,29.97,ENE,69,0.0,3.0,79,0.00,,,0.00,LWC V2.00 B2112,2013-02-16 00:35:00,
2013-02-15 15:40:00,11.3,6.1,29.97,NE,56,1.0,4.0,79,0.00,,,0.00,LWC V2.00 B2112,2013-02-16 00:40:00,
2013-02-15 15:45:00,10.9,5.7,29.97,ENE,77,0.0,5.0,79,0.00,,,0.00,LWC V2.00 B2112,2013-02-16 00:45:00,
2013-02-15 15:50:00,10.6,5.4,29.97,NNE,27,4.0,5.0,79,0.00,,,0.00,LWC V2.00 B2112,2013-02-16 00:50:00,
2013-02-15 15:55:00,10.4,5.2,29.98,NE,51,3.0,5.0,79,0.00,,,0.00,LWC V2.00 B2112,2013-02-16 00:55:00,
2013-02-15 16:00:00,10.1,5.2,29.98,ENE,63,1.0,5.0,80,0.00,,,0.00,LWC V2.00 B2112,2013-02-16 01:00:00,
2013-02-15 16:05:00,9.9,5.3,29.98,NE,47,1.0,4.0,81,0.00,,,0.00,LWC V2.00 B2112,2013-02-16 01:05:00,
2013-02-15 16:10:00,9.9,5.5,29.98,NE,55,2.0,2.0,82,0.00,,,0.00,LWC V2.00 B2112,2013-02-16 01:10:00,
2013-02-15 16:15:00,9.8,5.7,29.98,ENE,68,0.0,2.0,83,0.00,,,0.00,LWC V2.00 B2112,2013-02-16 01:15:00,
2013-02-15 16:20:00,9.7,5.6,29.98,NE,46,1.0,3.0,83,0.00,,,0.00,LWC V2.00 B2112,2013-02-16 01:20:00,
2013-02-15 16:25:00,9.6,5.5,29.98,NNE,17,3.0,3.0,83,0.00,,,0.00,LWC V2.00 B2112,2013-02-16 01:25:00,
2013-02-15 16:30:00,9.5,5.4,29.99,NE,55,1.0,3.0,83,0.00,,,0.00,LWC V2.00 B2112,2013-02-16 01:30:00,
2013-02-15 16:35:00,9.3,4.9,29.99,ENE,68,0.0,5.0,82,0.00,,,0.00,LWC V2.00 B2112,2013-02-16 01:35:00,
2013-02-15 16:40:00,9.2,4.8,29.99,NE,41,1.0,3.0,82,0.00,,,0.00,LWC V2.00 B2112,2013-02-16 01:40:00,
2013-02-15 16:45:00,9.2,4.8,29.99,East,93,2.0,3.0,82,0.00,,,0.00,LWC V2.00 B2112,2013-02-16 01:45:00,
2013-02-15 16:50:00,9.2,4.8,29.99,ENE,62,1.0,2.0,82,0.00,,,0.00,LWC V2.00 B2112,2013-02-16 01:50:00,
2013-02-15 16:55:00,9.1,4.7,29.99,East,80,0.0,2.0,82,0.00,,,0.00,LWC V2.00 B2112,2013-02-16 01:55:00,
2013-02-15 17:00:00,9.0,4.6,29.99,East,87,0.0,2.0,82,0.00,,,0.00,LWC V2.00 B2112,2013-02-16 02:00:00,
2013-02-15 17:05:00,8.9,4.5,30.00,NNW,328,0.0,2.0,82,0.00,,,0.00,LWC V2.00 B2112,2013-02-16 02:05:00,
2013-02-15 17:10:00,8.8,4.4,30.00,ENE,58,3.0,5.0,82,0.00,,,0.00,LWC V2.00 B2112,2013-02-16 02:10:00,
2013-02-15 17:15:00,8.7,4.1,30.00,ENE,77,4.0,4.0,81,0.00,,,0.00,LWC V2.00 B2112,2013-02-16 02:15:00,
2013-02-15 17:20:00,8.5,3.9,30.00,ENE,68,0.0,2.0,81,0.00,,,0.00,LWC V2.00 B2112,2013-02-16 02:20:00,
2013-02-15 17:25:00,8.4,3.8,30.00,ENE,68,0.0,2.0,81,0.00,,,0.00,LWC V2.00 B2112,2013-02-16 02:25:00,
2013-02-15 17:30:00,8.3,3.7,30.01,ENE,72,0.0,4.0,81,0.00,,,0.00,LWC V2.00 B2112,2013-02-16 02:30:00,
2013-02-15 17:35:00,8.1,3.5,30.01,NE,45,1.0,4.0,81,0.00,,,0.00,LWC V2.00 B2112,2013-02-16 02:35:00,
2013-02-15 17:40:00,8.0,3.4,30.01,NE,42,0.0,1.0,81,0.00,,,0.00,LWC V2.00 B2112,2013-02-16 02:40:00,
2013-02-15 17:45:00,7.9,3.3,30.01,ENE,68,0.0,2.0,81,0.00,,,0.00,LWC V2.00 B2112,2013-02-16 02:45:00,
2013-02-15 17:50:00,7.8,3.2,30.01,NE,44,0.0,2.0,81,0.00,,,0.00,LWC V2.00 B2112,2013-02-16 02:50:00,
2013-02-15 17:55:00,7.7,3.1,30.01,ENE,73,2.0,4.0,81,0.00,,,0.00,LWC V2.00 B2112,2013-02-16 02:55:00,
2013-02-15 18:00:00,7.7,3.1,30.01,East,87,0.0,0.0,81,0.00,,,0.00,LWC V2.00 B2112,2013-02-16 03:00:00,
2013-02-15 18:05:00,7.5,2.9,30.01,East,81,0.0,1.0,81,0.00,,,0.00,LWC V2.00 B2112,2013-02-16 03:05:00,
2013-02-15 18:10:00,7.4,2.8,30.01,NE,52,1.0,4.0,81,0.00,,,0.00,LWC V2.00 B2112,2013-02-16 03:10:00,
2013-02-15 18:15:00,7.2,2.6,30.01,NE,35,1.0,2.0,81,0.00,,,0.00,LWC V2.00 B2112,2013-02-16 03:15:00,
2013-02-15 18:20:00,7.1,2.5,30.01,NE,39,1.0,2.0,81,0.00,,,0.00,LWC V2.00 B2112,2013-02-16 03:20:00,
2013-02-15 18:25:00,6.9,2.1,30.02,NE,56,1.0,2.0,80,0.00,,,0.00,LWC V2.00 B2112,2013-02-16 03:25:00,
2013-02-15 18:30:00,6.8,2.0,30.02,NE,56,1.0,2.0,80,0.00,,,0.00,LWC V2.00 B2112,2013-02-16 03:30:00,
2013-02-15 18:35:00,6.7,1.9,30.02,East,97,0.0,3.0,80,0.00,,,0.00,LWC V2.00 B2112,2013-02-16 03:35:00,
2013-02-15 18:40:00,6.7,1.9,30.02,NE,56,0.0,2.0,80,0.00,,,0.00,LWC V2.00 B2112,2013-02-16 03:40:00,
2013-02-15 18:45:00,6.5,1.7,30.02,ENE,73,0.0,4.0,80,0.00,,,0.00,LWC V2.00 B2112,2013-02-16 03:45:00,
2013-02-15 18:50:00,6.4,1.6,30.02,NNE,24,1.0,4.0,80,0.00,,,0.00,LWC V2.00 B2112,2013-02-16 03:50:00,
2013-02-15 18:55:00,6.3,1.5,30.02,NNE,27,0.0,2.0,80,0.00,,,0.00,LWC V2.00 B2112,2013-02-16 03:55:00,
2013-02-15 19:00:00,6.2,1.4,30.02,NNE,28,1.0,2.0,80,0.00,,,0.00,LWC V2.00 B2112,2013-02-16 04:00:00,
2013-02-15 19:05:00,6.1,1.0,30.03,ENE,63,0.0,0.0,79,0.00,,,0.00,LWC V2.00 B2112,2013-02-16 04:05:00,
2013-02-15 19:10:00,6.1,1.3,30.03,NE,48,1.0,2.0,80,0.00,,,0.00,LWC V2.00 B2112,2013-02-16 04:10:00,
2013-02-15 19:15:00,6.0,0.9,30.03,ENE,75,0.0,2.0,79,0.00,,,0.00,LWC V2.00 B2112,2013-02-16 04:15:00,
2013-02-15 19:20:00,5.9,0.8,30.03,NE,35,1.0,1.0,79,0.00,,,0.00,LWC V2.00 B2112,2013-02-16 04:20:00,
2013-02-15 19:25:00,5.8,0.7,30.03,NNE,20,0.0,0.0,79,0.00,,,0.00,LWC V2.00 B2112,2013-02-16 04:25:00,
2013-02-15 19:30:00,5.8,0.7,30.03,ENE,76,0.0,3.0,79,0.00,,,0.00,LWC V2.00 B2112,2013-02-16 04:30:00,
2013-02-15 19:35:00,5.8,0.7,30.04,ENE,63,0.0,1.0,79,0.00,,,0.00,LWC V2.00 B2112,2013-02-16 04:35:00,
2013-02-15 19:40:00,5.8,0.7,30.04,NNE,31,0.0,2.0,79,0.00,,,0.00,LWC V2.00 B2112,2013-02-16 04:40:00,
2013-02-15 19:45:00,5.8,0.7,30.04,ENE,62,0.0,0.0,79,0.00,,,0.00,LWC V2.00 B2112,2013-02-16 04:45:00,
2013-02-15 19:50:00,5.8,0.7,30.04,East,94,0.0,0.0,79,0.00,,,0.00,LWC V2.00 B2112,2013-02-16 04:50:00,
2013-02-15 19:55:00,5.7,0.6,30.04,NE,34,2.0,2.0,79,0.00,,,0.00,LWC V2.00 B2112,2013-02-16 04:55:00,
2013-02-15 20:00:00,5.7,0.6,30.04,NNE,29,0.0,1.0,79,0.00,,,0.00,LWC V2.00 B2112,2013-02-16 05:00:00,
2013-02-15 20:05:00,5.6,0.5,30.04,ENE,70,0.0,2.0,79,0.00,,,0.00,LWC V2.00 B2112,2013-02-16 05:05:00,
2013-02-15 20:10:00,5.6,0.5,30.05,NE,40,0.0,1.0,79,0.00,,,0.00,LWC V2.00 B2112,2013-02-16 05:10:00,
2013-02-15 20:15:00,5.6,0.5,30.05,NE,39,0.0,2.0,79,0.00,,,0.00,LWC V2.00 B2112,2013-02-16 05:15:00,
2013-02-15 20:20:00,5.5,0.4,30.05,NNE,25,0.0,2.0,79,0.00,,,0.00,LWC V2.00 B2112,2013-02-16 05:20:00,
2013-02-15 20:25:00,5.4,0.3,30.05,NE,42,0.0,1.0,79,0.00,,,0.00,LWC V2.00 B2112,2013-02-16 05:25:00,
2013-02-15 20:30:00,5.3,0.2,30.05,ENE,59,0.0,2.0,79,0.00,,,0.00,LWC V2.00 B2112,2013-02-16 05:30:00,
2013-02-15 20:35:00,5.3,0.2,30.05,ENE,59,0.0,0.0,79,0.00,,,0.00,LWC V2.00 B2112,2013-02-16 05:35:00,
2013-02-15 20:40:00,5.1,0.0,30.05,ENE,59,0.0,0.0,79,0.00,,,0.00,LWC V2.00 B2112,2013-02-16 05:40:00,
2013-02-15 20:45:00,5.0,-0.1,30.05,ENE,67,0.0,0.0,79,0.00,,,0.00,LWC V2.00 B2112,2013-02-16 05:45:00,
2013-02-15 20:50:00,4.9,-0.2,30.06,ENE,68,0.0,0.0,79,0.00,,,0.00,LWC V2.00 B2112,2013-02-16 05:50:00,
2013-02-15 20:55:00,4.8,-0.3,30.06,ENE,68,0.0,0.0,79,0.00,,,0.00,LWC V2.00 B2112,2013-02-16 05:55:00,
2013-02-15 21:00:00,4.5,-0.5,30.06,ENE,68,0.0,1.0,79,0.00,,,0.00,LWC V2.00 B2112,2013-02-16 06:00:00,
2013-02-15 21:05:00,4.4,-0.6,30.06,ENE,68,0.0,0.0,79,0.00,,,0.00,LWC V2.00 B2112,2013-02-16 06:05:00,
2013-02-15 21:10:00,4.2,-0.6,30.06,ENE,68,0.0,1.0,80,0.00,,,0.00,LWC V2.00 B2112,2013-02-16 06:10:00,
2013-02-15 21:15:00,4.1,-0.7,30.06,ENE,68,0.0,0.0,80,0.00,,,0.00,LWC V2.00 B2112,2013-02-16 06:15:00,
2013-02-15 21:20:00,4.1,-0.7,30.06,SE,138,0.0,1.0,80,0.00,,,0.00,LWC V2.00 B2112,2013-02-16 06:20:00,
2013-02-15 21:25:00,4.2,-0.6,30.06,ENE,63,0.0,1.0,80,0.00,,,0.00,LWC V2.00 B2112,2013-02-16 06:25:00,
2013-02-15 21:30:00,4.3,-0.5,30.07,ENE,68,0.0,0.0,80,0.00,,,0.00,LWC V2.00 B2112,2013-02-16 06:30:00,
2013-02-15 21:35:00,4.3,-0.5,30.07,East,93,0.0,0.0,80,0.00,,,0.00,LWC V2.00 B2112,2013-02-16 06:35:00,
2013-02-15 21:40:00,4.1,-0.4,30.07,East,93,0.0,0.0,81,0.00,,,0.00,LWC V2.00 B2112,2013-02-16 06:40:00,
2013-02-15 21:45:00,4.0,-0.5,30.07,East,93,0.0,0.0,81,0.00,,,0.00,LWC V2.00 B2112,2013-02-16 06:45:00,
2013-02-15 21:50:00,3.7,-0.8,30.07,East,93,0.0,0.0,81,0.00,,,0.00,LWC V2.00 B2112,2013-02-16 06:50:00,
2013-02-15 21:55:00,3.6,-0.9,30.07,East,93,0.0,0.0,81,0.00,,,0.00,LWC V2.00 B2112,2013-02-16 06:55:00,
2013-02-15 22:00:00,3.4,-1.1,30.07,East,93,0.0,0.0,81,0.00,,,0.00,LWC V2.00 B2112,2013-02-16 07:00:00,
2013-02-15 22:05:00,3.2,-1.0,30.08,East,93,0.0,0.0,82,0.00,,,0.00,LWC V2.00 B2112,2013-02-16 07:05:00,
2013-02-15 22:10:00,3.1,-1.1,30.08,East,93,0.0,0.0,82,0.00,,,0.00,LWC V2.00 B2112,2013-02-16 07:10:00,
2013-02-15 22:15:00,2.9,-1.3,30.08,East,93,0.0,0.0,82,0.00,,,0.00,LWC V2.00 B2112,2013-02-16 07:15:00,
2013-02-15 22:20:00,2.8,-1.4,30.08,East,93,0.0,0.0,82,0.00,,,0.00,LWC V2.00 B2112,2013-02-16 07:20:00,
2013-02-15 22:25:00,2.8,-1.4,30.08,East,93,0.0,0.0,82,0.00,,,0.00,LWC V2.00 B2112,2013-02-16 07:25:00,
2013-02-15 22:30:00,2.6,-1.4,30.08,East,93,0.0,0.0,83,0.00,,,0.00,LWC V2.00 B2112,2013-02-16 07:30:00,
2013-02-15 22:35:00,2.6,-1.4,30.08,East,93,0.0,0.0,83,0.00,,,0.00,LWC V2.00 B2112,2013-02-16 07:35:00,
2013-02-15 22:40:00,2.5,-1.5,30.08,East,93,0.0,0.0,83,0.00,,,0.00,LWC V2.00 B2112,2013-02-16 07:40:00,
2013-02-15 22:45:00,2.3,-1.7,30.08,East,93,0.0,0.0,83,0.00,,,0.00,LWC V2.00 B2112,2013-02-16 07:45:00,
2013-02-15 22:50:00,2.2,-1.8,30.08,East,93,0.0,0.0,83,0.00,,,0.00,LWC V2.00 B2112,2013-02-16 07:50:00,
2013-02-15 22:55:00,1.9,-2.0,30.08,East,93,0.0,0.0,83,0.00,,,0.00,LWC V2.00 B2112,2013-02-16 07:55:00,
2013-02-15 23:00:00,1.7,-2.2,30.08,East,93,0.0,0.0,83,0.00,,,0.00,LWC V2.00 B2112,2013-02-16 08:00:00,
2013-02-15 23:05:00,1.4,-2.3,30.08,East,93,0.0,0.0,84,0.00,,,0.00,LWC V2.00 B2112,2013-02-16 08:05:00,
2013-02-15 23:10:00,1.2,-2.5,30.08,East,93,0.0,0.0,84,0.00,,,0.00,LWC V2.00 B2112,2013-02-16 08:10:00,
2013-02-15 23:15:00,0.9,-2.8,30.08,East,93,0.0,0.0,84,0.00,,,0.00,LWC V2.00 B2112,2013-02-16 08:15:00,
2013-02-15 23:20:00,0.5,-3.2,30.09,East,93,0.0,0.0,84,0.00,,,0.00,LWC V2.00 B2112,2013-02-16 08:20:00,
2013-02-15 23:25:00,0.2,-3.5,30.09,East,93,0.0,0.0,84,0.00,,,0.00,LWC V2.00 B2112,2013-02-16 08:25:00,
2013-02-15 23:30:00,-0.1,-3.8,30.09,East,93,0.0,0.0,84,0.00,,,0.00,LWC V2.00 B2112,2013-02-16 08:30:00,
2013-02-15 23:35:00,-0.5,-4.2,30.09,East,93,0.0,0.0,84,0.00,,,0.00,LWC V2.00 B2112,2013-02-16 08:35:00,
2013-02-15 23:40:00,-0.8,-4.4,30.09,East,93,0.0,0.0,84,0.00,,,0.00,LWC V2.00 B2112,2013-02-16 08:40:00,
2013-02-15 23:45:00,-0.9,-4.5,30.09,East,93,0.0,0.0,84,0.00,,,0.00,LWC V2.00 B2112,2013-02-16 08:45:00,
2013-02-15 23:50:00,-1.1,-4.7,30.09,East,93,0.0,0.0,84,0.00,,,0.00,LWC V2.00 B2112,2013-02-16 08:50:00,
2013-02-15 23:55:00,-1.4,-5.0,30.09,East,93,0.0,0.0,84,0.00,,,0.00,LWC V2.00 B2112,2013-02-16 08:55:00,